Fort Leonard Wood, MO

9:34 AM CST on February 23, 2018 (GMT -0600)
Waynesville Regional At Forney Field

Weather History for KTBN - August, 2012

Change the Weather History Date:

Tuesday, August 7, 2012

  Actual Average Record
Temperature  
Mean Temperature 80 °F -  
Max Temperature 98 °F 84 °F 98 °F (2007)
Min Temperature 64 °F 67 °F 53 °F (1997)
Cooling Degree Days 16    
Growing Degree Days 30 (Base 50)    
Moisture  
Dew Point 58 °F    
Average Humidity 50    
Maximum Humidity 86    
Minimum Humidity 21    
Precipitation  
Precipitation 0.00 in - - ()
Sea Level Pressure  
Sea Level Pressure 29.93 in    
Wind  
Wind Speed 4 mph (SE)    
Max Wind Speed 10 mph    
Max Gust Speed -    
Visibility 10 miles    
Events      
Averages and records for this station are not official NWS values.
T = Trace of Precipitation, MM = Missing Value Source: NWS Daily Summary

Daily Weather History Graph

Daily Weather History Graph

Search for Another Location

Airport or City:

Trip Planner

Search our weather history database for the weather conditions in past years. The results will help you decide how hot, cold, wet, or windy it might be!

Date:

Astronomy

Aug. 07, 2012 Rise Set
Actual Time 6:17 AM CDT 8:10 PM CDT
Civil Twilight 5:49 AM CDT 8:38 PM CDT
Nautical Twilight 5:14 AM CDT 9:13 PM CDT
Astronomical Twilight 4:37 AM CDT 9:50 PM CDT
Moon 10:59 PM CDT (8/7) 11:57 AM CDT (8/7)
Length of Visible Light 14h 49m
Length of Day
13h 52m
Waning Gibbous, 69% of the Moon is Illuminated
Aug 7
Waning Gibbous
Aug 9
Last Quarter
Aug 17
New
Aug 24
First Quarter
Aug 31
Full

Hourly Weather History & Observations

Time (CDT) Temp. Heat Index Dew Point Humidity Pressure Visibility Wind Dir Wind Speed Gust Speed Precip Events Conditions
12:55 AM 70.0 °F - 61.3 °F 74% 29.96 in 10.0 mi Calm Calm - N/A   Clear
1:55 AM 69.6 °F - 60.1 °F 72% 29.96 in 10.0 mi SSE 5.8 mph - N/A   Clear
2:55 AM 69.3 °F - 60.6 °F 74% 29.95 in 10.0 mi SSE 4.6 mph - N/A   Clear
3:55 AM 66.7 °F - 61.2 °F 82% 29.95 in 10.0 mi SSE 4.6 mph - N/A   Clear
4:55 AM 65.7 °F - 61.2 °F 85% 29.95 in 10.0 mi SSE 4.6 mph - N/A   Clear
5:55 AM 64.8 °F - 60.6 °F 86% 29.96 in 10.0 mi SSE 5.8 mph - N/A   Clear
6:55 AM 65.7 °F - 61.0 °F 85% 29.96 in 10.0 mi SSE 3.5 mph - N/A   Clear
7:55 AM 74.5 °F - 62.6 °F 66% 29.97 in 10.0 mi Calm Calm - N/A   Clear
9:55 AM 86.4 °F 87.8 °F 64.4 °F 48% 29.97 in 10.0 mi Variable 3.5 mph - N/A   Clear
10:55 AM 90.7 °F 89.2 °F 56.7 °F 32% 29.97 in 10.0 mi Variable 5.8 mph - N/A   Clear
11:55 AM 92.3 °F 90.7 °F 57.0 °F 30% 29.96 in 10.0 mi Calm Calm - N/A   Clear
12:55 PM 95.2 °F 93.0 °F 54.5 °F 25% 29.94 in 10.0 mi ENE 10.4 mph - N/A   Clear
1:55 PM 96.8 °F 95.5 °F 56.3 °F 26% 29.94 in 10.0 mi East 10.4 mph - N/A   Clear
2:55 PM 96.4 °F 94.3 °F 53.8 °F 24% 29.92 in 10.0 mi Variable 4.6 mph - N/A   Clear
3:55 PM 97.3 °F 95.5 °F 54.5 °F 24% 29.90 in 10.0 mi ESE 9.2 mph - N/A   Clear
4:55 PM 97.7 °F 95.9 °F 55.0 °F 24% 29.89 in 10.0 mi SE 5.8 mph - N/A   Clear
5:55 PM 97.5 °F - 51.8 °F 21% 29.89 in 10.0 mi ENE 5.8 mph - N/A   Clear
6:55 PM 95.5 °F 93.1 °F 53.2 °F 24% 29.89 in 10.0 mi SSE 5.8 mph - N/A   Clear
7:55 PM 89.2 °F 87.3 °F 54.5 °F 31% 29.90 in 10.0 mi South 3.5 mph - N/A   Clear
8:55 PM 80.8 °F 81.4 °F 59.9 °F 49% 29.91 in 10.0 mi South 3.5 mph - N/A   Clear
9:55 PM 78.8 °F - 60.8 °F 54% 29.91 in 10.0 mi South 3.5 mph - N/A   Clear
10:55 PM 77.4 °F - 60.4 °F 56% 29.91 in 10.0 mi South 3.5 mph - N/A   Clear
11:55 PM 75.4 °F - 59.7 °F 58% 29.91 in 10.0 mi SSE 5.8 mph - N/A   Clear